Location: Tarleton Observatory
(32.2162°N, 98.0976°W)
Time: 16:03:14
(UTC-05:00)

Daily predictions for brighter satellites

Satellite Brightness Start Highest point End
(mag) Time Altitude Azimuth Time Altitude Azimuth Time Altitude Azimuth
Cosmos 1844 Rocket 3.7 21:07:01 10° SSE 21:11:32 25° ESE 21:16:03 10° NE
Cosmos 1400 Rocket 3.0 21:07:48 10° S 21:11:45 54° E 21:15:39 10° NNE
Cosmos 158 Rocket 4.1 21:09:11 10° SSW 21:14:33 88° WNW 21:19:48 10° NNE
Resurs 1-3 4.1 21:10:32 10° SE 21:14:41 44° ENE 21:18:51 10° N
Cosmos 1602 Rocket 3.7 21:10:45 10° S 21:15:13 82° W 21:19:43 10° N
Aureole 1 Rocket 2.5 21:17:10 10° S 21:20:04 48° ESE 21:23:25 10° NNE
CZ-2D R/B 4.4 21:17:45 10° S 21:21:27 43° W 21:25:10 10° NNW
Cosmos 1812 Rocket 3.7 21:18:41 10° N 21:22:57 53° E 21:27:14 10° SSE
Cosmos 1470 2.7 21:19:04 10° N 21:22:59 79° E 21:26:54 10° S
Spot 2 Rocket 4.1 21:20:11 10° SE 21:24:52 41° ENE 21:29:36 10° N
Intercosmos 25 4.2 21:23:02 10° SSW 21:26:06 46° W 21:29:48 10° N
YAOGAN 6 3.0 21:24:13 10° S 21:27:43 62° W 21:31:13 10° NNW
SJ-11-01 4.4 21:23:27 10° SSE 21:28:08 61° ENE 21:32:49 10° N
Cosmos 1452 Rocket 3.8 21:24:42 10° N 21:29:52 52° ENE 21:34:47 11° SSE
Cosmos 1420 Rocket 4.4 21:25:16 10° N 21:30:13 45° ENE 21:34:45 12° SE
USA 186 2.4 21:28:28 10° S 21:31:43 56° W 21:34:47 10° NNW
Cosmos 1758 Rocket 4.1 21:28:01 10° SSE 21:32:11 40° E 21:36:19 10° NNE
OAO 3 Copernicus 4.5 21:28:02 10° WNW 21:33:06 73° N 21:38:09 10° E
Cosmos 2056 Rocket 4.5 21:29:25 10° NNW 21:34:22 47° WSW 21:39:23 10° S
Resurs 01 Rocket 1.6 21:35:51 10° SSE 21:40:15 85° E 21:44:42 10° N
H-II Stage 2 3.2 21:36:07 10° SW 21:41:27 21° S 21:42:54 16° SE
OAO 3 Rocket 3.7 21:37:55 10° W 21:42:51 64° N 21:47:44 10° ENE
Cosmos 2263 Rocket 4.4 21:38:13 10° WSW 21:43:07 29° WNW 21:48:02 10° N
Meteor 2-5 Rocket 3.8 21:40:31 10° S 21:46:27 78° E 21:52:22 10° N
SL-8 R/B 4.3 21:41:52 10° WSW 21:46:38 61° NW 21:51:25 10° NE
H-2A R/B 3.1 21:50:00 17° ESE 21:53:07 31° ENE 21:57:48 10° N
ATLAS 3B R/B 4.5 21:49:52 10° N 21:53:58 17° NE 21:58:01 10° E
Cosmos 1825 Rocket 3.6 21:52:28 10° S 21:56:56 83° W 22:01:24 10° N
Cosmos 1269 Rocket 4.0 21:53:07 10° SSW 21:58:25 84° ESE 22:03:45 10° NNE
In-Cosmos 22 4.1 21:53:17 10° S 21:58:44 75° E 22:04:22 10° NNE
Palapa 6 Rocket 4.4 21:54:19 10° WSW 21:58:54 31° S 22:01:43 21° SE
Cosmos 1238 Rocket 2.1 21:58:16 26° SSE 21:59:42 57° E 22:02:37 10° NNE
Cosmos 494 Rocket 4.3 21:55:18 10° S 22:00:16 46° ESE 22:05:16 10° NNE
Lacrosse 5 3.7 21:59:36 10° WSW 22:04:11 34° NW 22:08:46 10° NNE
Meteor 1-16 Rocket 4.3 21:59:47 10° N 22:05:24 85° W 22:10:31 13° S
Cosmos 1674 3.2 22:08:02 31° SE 22:09:07 39° E 22:12:41 10° NNE
SL-08 RB Rocket 4.3 22:07:31 26° SE 22:09:35 41° ENE 22:13:58 10° N
Cosmos 1461 4.2 22:12:25 25° ESE 22:12:25 25° ESE 22:15:58 10° NE
BREEZE-M R/B 3.2 22:14:52 10° WNW 22:17:21 27° SW 22:17:36 26° SW
ATLAS 2AS CENTAUR R/B 3.3 22:10:41 10° SW 22:18:19 71° WNW 22:26:26 10° NNE
SEDSat Delta rocket 3.7 22:14:51 10° SW 22:19:50 40° SSE 22:21:01 34° SE
Cosmos 1315 Rocket 4.1 22:17:57 10° SSW 22:21:45 41° W 22:25:38 10° N
DMSP B5D2-2 4.4 22:17:04 10° NNE 22:22:03 45° E 22:23:59 31° SSE
Cosmos 220 Rocket 4.4 22:22:18 37° ESE 22:22:39 38° ESE 22:26:34 10° NE
ERS-2 3.8 22:20:20 13° SSW 22:23:08 30° W 22:26:25 10° NW
Iridium 4 Rocket 4.2 22:18:51 10° SSW 22:24:29 58° W 22:29:46 10° N
ERS-1 Rocket 3.3 22:26:45 34° ESE 22:28:29 49° ENE 22:33:19 10° N
Cosmos 1726 3.4 22:25:39 10° NNE 22:28:37 27° ENE 22:28:37 27° ENE
Aurora 2 Rocket 4.0 22:26:42 10° WSW 22:32:46 48° S 22:36:49 28° ESE
Cosmos 2251 Rocket 3.8 22:31:27 37° SE 22:32:53 45° ESE 22:37:57 10° NNE
Cosmos 2278 Rocket 2.6 22:34:38 37° SE 22:35:51 42° ESE 22:41:10 10° NE
S3M 4.1 22:35:14 31° SSE 22:38:15 61° E 22:44:32 10° NNE
ARGOS 3.3 22:36:37 28° S 22:39:33 72° WSW 22:44:59 10° NNW
Cosmos 1437 3.2 22:39:48 10° NNW 22:42:54 52° W 22:43:00 51° WSW
Cosmos-2242 3.1 22:39:23 10° N 22:43:46 74° W 22:45:05 44° SSW
Cosmos 2084 3.0 22:40:09 10° NNW 22:43:59 74° ENE 22:44:11 71° E
USA 215 3.5 22:43:19 32° SSE 22:46:25 60° SW 22:52:54 10° NW
MetOp-A 4.4 22:45:08 30° S 22:47:46 62° WSW 22:53:05 10° NNW
SL-14 R/B 4.3 22:53:37 33° NE 22:53:37 33° NE 22:56:14 10° NNE
CZ-3 Stage 3 4.1 22:49:56 10° W 22:54:20 78° S 23:22:39 10° E
Cosmos 1844 Rocket 4.2 22:50:01 10° SW 22:55:09 35° WNW 23:00:19 10° N
KORONAS-FOTON 4.2 22:54:30 50° SW 22:55:11 60° W 22:59:04 10° N
Helios 1A 3.3 22:55:31 50° ENE 22:55:31 50° ENE 22:59:25 10° N
NOSS 3-4 (A) 3.3 22:52:04 24° SSW 22:55:56 70° ESE 23:02:10 10° NE
NOSS 3-4 (C) 3.3 22:52:23 25° SSW 22:56:00 69° ESE 23:02:15 10° NE
COSMOS 2406 3.4 22:50:33 10° NNW 22:56:14 58° ENE 22:57:26 48° ESE
Terra 3.0 22:58:07 29° ENE 22:58:07 29° ENE 23:02:07 10° NNE
Cosmos 1842 Rocket 3.9 22:54:42 10° N 22:58:39 51° ENE 22:58:39 51° ENE
Cosmos 1346 Rocket 3.8 22:56:51 10° NNW 23:00:39 41° W 23:01:27 36° SW
Cosmos 1553 Rocket 4.1 22:58:03 27° SSW 23:01:30 72° W 23:07:34 10° N
Helios 1B rocket 2.8 23:01:33 10° NNE 23:04:49 51° NE 23:04:49 51° NE
BREEZE-M DEB (TANK) 4.5 22:36:23 10° NW 23:12:35 85° SW 23:15:42 44° SE
ATLAS 5 CENTAUR R/B 2.5 23:15:45 38° NE 23:15:45 38° NE 23:18:47 10° NE
Cosmos 883 Rocket 4.4 23:15:48 60° SE 23:16:40 67° E 23:22:51 10° NNE
Cosmos 2315 Rocket 4.2 23:19:31 52° ESE 23:19:50 52° E 23:25:57 10° NNE
Cosmos 1626 4.1 23:27:30 23° NNE 23:27:30 23° NNE 23:29:02 10° NNE
OAO 3 Rocket 3.3 23:21:41 10° WNW 23:26:26 75° NNW 23:26:26 75° NNW
Cosmos 1386 Rocket 4.2 23:21:58 10° N 23:28:02 86° E 23:28:43 71° SSE
Cosmos 2082 Rocket 3.8 23:24:22 10° N 23:28:42 22° ENE 23:29:05 22° ENE
Cosmos 1833 Rocket 4.0 23:26:56 10° N 23:31:34 26° ENE 23:31:41 26° ENE
SPOT 1/Viking Rocket 3.7 23:31:52 60° WSW 23:32:09 61° W 23:37:15 10° NNW
H-2A R/B 3.7 23:30:37 21° SW 23:32:27 26° W 23:36:51 10° NW
Cosmos 2221 3.4 23:29:01 10° N 23:32:03 43° NNE 23:32:03 43° NNE
Cosmos 1340 4.3 23:32:31 10° NNW 23:35:08 32° WNW 23:35:08 32° WNW
SPOT 5 3.5 23:36:22 50° WSW 23:36:36 51° W 23:41:40 10° NNW
CZ-2C R/B 2.9 23:35:26 10° NNE 23:39:51 55° NE 23:39:51 55° NE
ATLAS 3B R/B 2.4 23:38:47 10° NNW 23:45:23 84° WSW 23:45:53 77° S
USA 238 DEB 3.9 23:40:15 10° NW 23:47:20 62° WSW 23:48:21 56° SSW
USA 238 3.9 23:40:22 10° NW 23:47:26 63° WSW 23:48:27 57° SSW
